• In United Kingdom
  • List of Countries
  • For 7 days
  • Water Temperature
  • Satellite Maps
  • Weather Map
  • Weather Widgets
  • user-avatar
    Login

    Hourly Weather Carlisle

    Today, 21 June, Thursday

    Time Temperature Precipitation Wind Pressure Humidity
    00:00 +7°C° 0 mm 6 mps 762 mmHg 85%
    01:00 +7°C° 0 mm 6 mps 763 mmHg 85%
    02:00 +5°C° 0 mm 6 mps 763 mmHg 85%
    03:00 +6°C° 0 mm 5 mps 763 mmHg 84%
    04:00 +7°C° 0 mm 6 mps 763 mmHg 83%
    05:00 +7°C° 0 mm 6 mps 764 mmHg 81%
    06:00 +8°C° 0 mm 6 mps 765 mmHg 79%
    07:00 +9°C° 0 mm 6 mps 765 mmHg 75%
    08:00 +10°C° 0 mm 6 mps 766 mmHg 70%
    09:00 +11°C° 0 mm 6 mps 766 mmHg 66%
    10:00 +13°C° 0 mm 6 mps 767 mmHg 64%
    11:00 +14°C° 0 mm 6 mps 767 mmHg 62%
    12:00 +15°C° 0 mm 6 mps 767 mmHg 61%
    13:00 +15°C° 0 mm 6 mps 767 mmHg 61%
    14:00 +16°C° 0 mm 7 mps 768 mmHg 61%
    15:00 +16°C° 0 mm 7 mps 768 mmHg 62%
    16:00 +15°C° 0 mm 6 mps 768 mmHg 65%
    17:00 +15°C° 0 mm 6 mps 768 mmHg 67%
    18:00 +14°C° 0 mm 6 mps 768 mmHg 70%
    19:00 +13°C° 0 mm 5 mps 769 mmHg 74%
    20:00 +11°C° 0 mm 4 mps 769 mmHg 78%
    21:00 +10°C° 0 mm 4 mps 770 mmHg 82%
    22:00 +8°C° 0 mm 4 mps 770 mmHg 85%
    23:00 +8°C° 0 mm 3 mps 770 mmHg 88%

    Tomorrow, 22 June, Friday

    Time Temperature Precipitation Wind Pressure Humidity
    00:00 +7°C° 0 mm 3 mps 770 mmHg 91%
    01:00 +7°C° 0 mm 3 mps 770 mmHg 92%
    02:00 +5°C° 0 mm 3 mps 770 mmHg 93%
    03:00 +6°C° 0 mm 2 mps 770 mmHg 94%
    04:00 +7°C° 0 mm 2 mps 770 mmHg 91%
    05:00 +8°C° 0 mm 2 mps 770 mmHg 88%
    06:00 +9°C° 0 mm 2 mps 770 mmHg 85%
    07:00 +10°C° 0 mm 3 mps 771 mmHg 78%
    08:00 +12°C° 0 mm 3 mps 771 mmHg 71%
    09:00 +14°C° 0 mm 3 mps 771 mmHg 64%
    10:00 +16°C° 0 mm 3 mps 771 mmHg 62%
    11:00 +17°C° 0 mm 3 mps 771 mmHg 60%
    12:00 +18°C° 0 mm 3 mps 770 mmHg 58%
    13:00 +18°C° 0 mm 4 mps 770 mmHg 60%
    14:00 +18°C° 0 mm 4 mps 770 mmHg 62%
    15:00 +19°C° 0 mm 4 mps 770 mmHg 64%
    16:00 +18°C° 0 mm 4 mps 770 mmHg 68%
    17:00 +18°C° 0 mm 4 mps 769 mmHg 71%
    18:00 +17°C° 0 mm 4 mps 769 mmHg 75%
    19:00 +14°C° 0 mm 4 mps 769 mmHg 79%
    20:00 +13°C° 0 mm 3 mps 770 mmHg 83%
    21:00 +11°C° 0 mm 3 mps 770 mmHg 87%
    22:00 +10°C° 0 mm 3 mps 770 mmHg 89%
    23:00 +9°C° 0 mm 3 mps 769 mmHg 91%

    Day after tomorrow, 23 June, Saturday

    Time Temperature Precipitation Wind Pressure Humidity
    00:00 +8°C° 0 mm 3 mps 769 mmHg 92%
    01:00 +8°C° 0 mm 2 mps 769 mmHg 93%
    02:00 +7°C° 0 mm 2 mps 769 mmHg 93%
    03:00 +7°C° 0 mm 2 mps 769 mmHg 93%
    04:00 +8°C° 0 mm 3 mps 769 mmHg 91%
    05:00 +9°C° 0 mm 3 mps 768 mmHg 89%
    06:00 +10°C° 0 mm 3 mps 768 mmHg 87%
    07:00 +11°C° 0 mm 3 mps 768 mmHg 83%
    08:00 +13°C° 0 mm 4 mps 768 mmHg 78%
    09:00 +14°C° 0 mm 4 mps 768 mmHg 73%
    10:00 +15°C° 0 mm 4 mps 768 mmHg 72%
    11:00 +17°C° 0 mm 4 mps 768 mmHg 70%
    12:00 +17°C° 0 mm 4 mps 768 mmHg 68%
    13:00 +18°C° 0 mm 4 mps 768 mmHg 68%
    14:00 +18°C° 0 mm 4 mps 768 mmHg 68%
    15:00 +18°C° 0 mm 4 mps 768 mmHg 68%
    16:00 +18°C° 0 mm 4 mps 767 mmHg 71%
    17:00 +18°C° 0 mm 4 mps 767 mmHg 73%
    18:00 +17°C° 0 mm 3 mps 767 mmHg 75%
    19:00 +16°C° 0 mm 3 mps 767 mmHg 80%
    20:00 +14°C° 0 mm 2 mps 767 mmHg 85%
    21:00 +12°C° 0 mm 2 mps 767 mmHg 91%
    22:00 +12°C° 0 mm 2 mps 767 mmHg 91%
    23:00 +10°C° 0 mm 2 mps 767 mmHg 92%

    24 June, Sunday

    Time Temperature Precipitation Wind Pressure Humidity
    00:00 +10°C° 0 mm 1 mps 767 mmHg 92%
    01:00 +10°C° 0 mm 1 mps 767 mmHg 92%
    02:00 +10°C° 0 mm 1 mps 767 mmHg 92%
    03:00 +9°C° 0 mm 1 mps 767 mmHg 92%
    04:00 +10°C° 0 mm 1 mps 767 mmHg 89%
    05:00 +11°C° 0 mm 1 mps 766 mmHg 87%
    06:00 +12°C° 0 mm 1 mps 766 mmHg 84%
    07:00 +14°C° 0 mm 1 mps 766 mmHg 79%
    08:00 +16°C° 0 mm 2 mps 766 mmHg 73%
    09:00 +18°C° 0 mm 2 mps 766 mmHg 68%
    10:00 +19°C° 0 mm 2 mps 766 mmHg 68%
    11:00 +19°C° 0 mm 3 mps 766 mmHg 67%
    12:00 +20°C° 0 mm 3 mps 766 mmHg 67%
    13:00 +21°C° 0 mm 3 mps 766 mmHg 67%
    14:00 +21°C° 0 mm 3 mps 766 mmHg 68%
    15:00 +21°C° 0 mm 3 mps 766 mmHg 68%
    16:00 +21°C° 0 mm 3 mps 766 mmHg 70%
    17:00 +20°C° 0 mm 3 mps 766 mmHg 72%
    18:00 +20°C° 0 mm 2 mps 765 mmHg 74%
    19:00 +18°C° 0 mm 2 mps 766 mmHg 79%
    20:00 +16°C° 0 mm 2 mps 766 mmHg 84%
    21:00 +14°C° 0 mm 1 mps 766 mmHg 88%
    22:00 +14°C° 0 mm 1 mps 766 mmHg 88%
    23:00 +13°C° 0 mm 1 mps 766 mmHg 87%

    25 June, Monday

    Time Temperature Precipitation Wind Pressure Humidity
    00:00 +12°C° 0 mm 1 mps 766 mmHg 87%
    01:00 +12°C° 0 mm 1 mps 766 mmHg 86%
    02:00 +12°C° 0 mm 1 mps 766 mmHg 86%
    03:00 +12°C° 0 mm 1 mps 766 mmHg 85%
    04:00 +13°C° 0 mm 1 mps 766 mmHg 83%
    05:00 +14°C° 0 mm 1 mps 766 mmHg 81%
    06:00 +16°C° 0 mm 1 mps 766 mmHg 79%
    07:00 +18°C° 0 mm 1 mps 766 mmHg 74%
    08:00 +20°C° 0 mm 1 mps 766 mmHg 69%
    09:00 +21°C° 0 mm 1 mps 766 mmHg 64%
    10:00 +22°C° 0 mm 1 mps 766 mmHg 63%
    11:00 +23°C° 0 mm 2 mps 766 mmHg 62%
    12:00 +24°C° 0 mm 2 mps 766 mmHg 61%
    13:00 +24°C° 0 mm 2 mps 765 mmHg 61%
    14:00 +25°C° 0 mm 2 mps 765 mmHg 62%
    15:00 +25°C° 0 mm 2 mps 765 mmHg 63%
    16:00 +25°C° 0 mm 2 mps 765 mmHg 66%
    17:00 +24°C° 0 mm 2 mps 765 mmHg 69%
    18:00 +24°C° 0 mm 1 mps 765 mmHg 72%
    19:00 +22°C° 0 mm 1 mps 765 mmHg 77%
    20:00 +20°C° 0 mm 1 mps 765 mmHg 82%
    21:00 +17°C° 0 mm 0 mps 765 mmHg 86%
    22:00 +16°C° 0 mm 0 mps 765 mmHg 87%
    23:00 +18°C° 0 mm 1 mps 765 mmHg 87%

    26 June, Tuesday

    Time Temperature Precipitation Wind Pressure Humidity
    00:00 +16°C° 0 mm 1 mps 765 mmHg 88%
    01:00 +16°C° 0 mm 1 mps 765 mmHg 88%
    02:00 +16°C° 0 mm 1 mps 765 mmHg 89%
    03:00 +15°C° 0 mm 1 mps 765 mmHg 89%
    04:00 +18°C° 0 mm 1 mps 765 mmHg 87%
    05:00 +19°C° 0 mm 1 mps 765 mmHg 86%
    06:00 +20°C° 0 mm 1 mps 765 mmHg 84%
    07:00 +21°C° 0 mm 1 mps 765 mmHg 80%
    08:00 +22°C° 0 mm 1 mps 765 mmHg 75%
    09:00 +23°C° 0 mm 1 mps 765 mmHg 71%
    10:00 +24°C° 0 mm 1 mps 765 mmHg 69%
    11:00 +25°C° 0 mm 1 mps 765 mmHg 67%
    12:00 +26°C° 0 mm 1 mps 765 mmHg 64%
    13:00 +26°C° 0 mm 1 mps 765 mmHg 64%
    14:00 +26°C° 0 mm 1 mps 765 mmHg 64%
    15:00 +26°C° 0 mm 1 mps 765 mmHg 65%
    16:00 +26°C° 0 mm 1 mps 765 mmHg 68%
    17:00 +26°C° 0 mm 1 mps 765 mmHg 71%
    18:00 +25°C° 0 mm 1 mps 766 mmHg 74%
    19:00 +24°C° 0 mm 1 mps 766 mmHg 79%
    20:00 +22°C° 0 mm 1 mps 766 mmHg 84%
    21:00 +20°C° 0 mm 1 mps 767 mmHg 89%
    22:00 +20°C° 0 mm 1 mps 767 mmHg 89%
    23:00 +19°C° 0 mm 1 mps 767 mmHg 90%
    Show more